Tracking 19796 objects as of 19-Jul-2019
HD Live streaming from Space Station
objects crossing your sky now

OPS 7613 (P/L 1)

Track OPS 7613 (P/L 1) now!
10-day predictions
OPS 7613 (P/L 1) is classified as:


NORAD ID: 4256
Int'l Code: 1969-082B
Perigee: 893.9 km
Apogee: 919.6 km
Inclination: 70.0 °
Period: 103.0 minutes
Semi major axis: 7277 km
RCS: 0.5333 m2 (medium)
Launch date: September 30, 1969
Source: United States (US)
Launch site: AIR FORCE WESTERN TEST RANGE (AFWTR)
aabbcc
Your satellite tracking list
Your tracking list is empty




NASA's NSSDC Master Catalog

Two Line Element Set (TLE):
1  4256U 69082B   19199.90052057 -.00000021 +00000-0 +22597-4 0  9992
2  4256 070.0109 344.7789 0017659 134.3903 225.8653 13.98332541537385
Source of the keplerian elements: AFSPC